Location: Amarillo Post Office Jordan Station
(35.1907°N, 101.9342°W)
Time: 11:50:48
(UTC+00:00)

Cosmos 1300 - Pass Details

Date: 24 January 2021
Orbit: 511 x 513 km, 82.5° (Epoch: 03 March)

Event Time Altitude Azimuth Distance (km) Brightness Sun altitude
Rises 12:44:11 0° 185° (S) 2,608 6.4 -14.0°
Reaches altitude 10° 12:46:17 10° 184° (S) 1,727 5.5 -13.5°
Maximum altitude 12:50:05 87° 94° (E) 518 2.7 -12.8°
Drops below altitude 10° 12:53:54 10° 7° (N) 1,741 5.3 -12.0°
Sets 12:56:02 0° 8° (N) 2,632 6.2 -11.6°
